Regional Weather Roundup
Issued by NWS State College, PA

Home | Current Version | Previous Version | Text Only | Print | Product List | Glossary On
Versions: 1 2 3 4 5 6 7 8 9 10 11 12 13 14 15 16 17 18 19 20 21 22 23 24 25 26 27 28 29 30 31 32 33 34 35 36 37 38 39 40 41 42 43 44 45 46 47 48 49 50
000
ASUS41 KCTP 310003
RWRCTP

REGIONAL WEATHER ROUNDUP
NATIONAL WEATHER SERVICE STATE COLLEGE PA
800 PM EDT THU JUL 30 2015

Note: "fair" indicates few or no clouds below 12,000 feet with no
significant weather and/or obstructions to visibility.

* = STATION THAT DOES NOT REPORT PRECIPITATION /E.G. RAIN...SNOW...ETC/
    THUNDER OR FOG.

PAZ002>004-007>009-013>016-020>023-029>032-310100-
WESTERN PENNSYLVANIA

CITY           SKY/WX    TMP DP  RH WIND       PRES   REMARKS
ERIE           CLEAR     79  61  53 W10       29.92S
MEADVILLE      CLEAR     77  52  41 W8        29.97R
FRANKLIN*      CLEAR     73  52  46 W8        29.99R
NEW CASTLE     MOCLDY    80  58  46 CALM      29.97R
BEAVER COUNTY  NOT AVBL
BUTLER*        CLEAR     79  55  44 W9        29.98R
PITTSBURGH INT PTCLDY    80  57  45 W8        29.97R
PITTSBURGH     CLEAR     80  52  37 VRB6G17   29.96R
INDIANA*       MOCLDY    79  59  50 NW5       29.98R
LATROBE        PTCLDY    81  55  41 NW9       29.96R
WASHINGTON CO* NOT AVBL
$$

PAZ004>006-010>012-017>019-024>028-033>037-041-042-045-046-049>053-310100-
CENTRAL PENNSYLVANIA

CITY           SKY/WX    TMP DP  RH WIND       PRES   REMARKS
BRADFORD       CLEAR     72  53  51 W8        29.97R
DUBOIS         CLEAR     76  54  46 W10       29.96R
CLEARFIELD     CLEAR     78  55  44 NW8       29.95R
JOHNSTOWN      CLEAR     75  55  49 NW9       29.99R
ALTOONA        PTCLDY    78  58  49 NW3       29.95R
STATE COLLEGE  PTCLDY    79  59  50 W7        29.92R
WILLIAMSPORT   PTCLDY    81  60  48 W7        29.84R
SELINSGROVE    PTCLDY    74  69  85 CALM      29.86R
FT INDIANTOWN  PTCLDY    79  67  67 W2        29.86R
CAPITAL CITY   PTCLDY    83  59  44 W6        29.86R
HARRISBURG     PTCLDY    83  64  52 W6        29.85R
YORK           PTCLDY    80  67  64 CALM      29.87R
$$

PAZ038>040-043-044-047-048-054-055-060>062-067>071-310100-
EASTERN PENNSYLVANIA

CITY           SKY/WX    TMP DP  RH WIND       PRES   REMARKS
SCRANTON       PTCLDY    83  62  49 CALM      29.86R
MOUNT POCONO   MOCLDY    76  60  57 NW6       29.91R
ALLENTOWN      PTCLDY    81  74  79 SW5       29.83R
QUAKERTOWN*    PTCLDY    77  75  94 SW3       29.86R
READING        PTCLDY    82  69  64 SW7       29.83R
LANCASTER      PTCLDY    81  66  60 W3        29.86R
COATESVILLE    CLEAR     75  75 100 SW3       29.88R
POTTSTOWN      PTCLDY    79  74  84 SW3       29.86R
BLUE BELL      PTCLDY    79  73  83 CALM      29.84R
DOYLESTOWN     CLOUDY    77  72  84 SW5       29.84R
WILLOW GROVE   NOT AVBL
NORTH PHILA    CLOUDY    80  71  74 SW7       29.85R
PHILADELPHIA   MOCLDY    80  73  79 SW8       29.85R
$$



USA.gov is the U.S. government's official web portal to all federal, state and local government web resources and services.